Zurück zum Katalog

BLOCK DM-SL R/B

AktivHEO
NORAD 29237·ROCKET BODY· XX

Gestartet Jun 18, 2006 von Sea Launch Platform

Loading…

Nächste Überflüge (nächste 24 Stunden)

TLE

AktuellSource: Space-Track

Epoche: Sep 14, 2026, 13:39 UTC

1 29237U 06023B   26257.56929318 -.00000074  00000-0  00000-0 0  9991
2 29237   1.0078  23.5994 6626707  65.9191 347.9715  2.15891221159606

Verfolge BLOCK DM-SL R/B in Echtzeit mit AllMySat

Download on the App Store